Theta_e
288 289 289 290 289 289 288 288 288 287 287 284 282 283 286 286 283 280 286 287 285 287 290 292 293 294 294 295 295 295 295 293 291 289 289 290 291 289 285 286 287 289 289 291 291 290 289 287 286 285 284 283 283 283 283 283 283 283 284 283 283 282 282 282 282 282 282 281 280 280 279 278 277 276 276 276 275 274 274 274 274 273 273 272 271 270 270
286 287 287 288 287 287 287 287 288 288 288 287 286 285 286 285 284 286 287 287 286 289 290 293 294 296 296 296 296 295 293 293 293 292 291 292 292 291 286 288 289 290 290 291 291 290 289 287 286 285 284 283 283 283 282 282 282 283 283 282 282 282 282 282 282 281 281 280 279 279 278 277 276 276 275 274 274 273 273 272 272 271 271 270 270 270 269
284 286 287 287 287 286 285 286 287 287 288 287 287 287 287 287 286 287 286 285 285 291 293 293 295 296 296 295 293 294 294 295 294 294 293 293 292 290 287 288 289 290 291 291 290 290 289 289 287 286 286 285 283 282 282 281 282 282 283 282 282 282 282 282 281 280 280 279 278 277 277 276 275 274 274 273 272 272 271 270 270 269 269 269 269 269 269
281 286 285 285 286 285 284 284 285 285 285 284 286 285 287 286 284 286 285 283 284 290 293 294 294 294 293 293 293 294 295 295 294 294 293 293 292 290 291 291 291 291 291 290 289 290 290 290 288 287 286 285 283 282 282 281 282 281 282 282 282 282 282 281 280 279 279 278 277 276 276 275 274 273 273 272 271 271 269 269 269 268 269 269 268 268 269
280 286 286 284 284 283 280 281 285 287 287 288 288 289 289 288 288 284 282 283 289 291 293 291 292 292 292 292 293 293 293 294 294 294 293 293 292 293 294 295 294 293 291 290 290 291 291 290 290 289 287 286 283 283 282 282 281 280 281 281 281 281 280 279 279 278 278 277 276 275 275 274 273 272 271 271 270 269 269 269 268 268 268 268 268 268 268
281 285 285 285 280 273 275 287 290 289 287 287 285 285 287 289 289 287 289 290 292 292 291 291 291 291 292 293 294 295 294 294 294 293 293 293 293 293 292 292 292 292 291 291 291 291 291 292 291 291 289 287 287 285 283 281 280 280 280 280 280 279 279 279 278 277 277 276 275 275 274 273 272 271 270 270 270 269 268 268 268 268 267 267 267 267 268
280 284 284 280 274 275 286 291 291 292 291 290 288 288 289 289 290 290 289 290 291 292 293 293 293 294 294 294 294 294 295 292 292 293 294 294 294 294 293 291 290 290 290 289 289 290 290 290 290 289 288 287 286 282 281 280 280 280 280 280 279 279 278 278 277 277 276 276 275 274 273 272 271 270 270 270 269 268 268 268 267 267 267 267 267 268 269
283 281 280 273 275 283 284 290 290 292 291 290 288 286 288 290 290 290 289 290 292 292 293 293 294 294 294 294 294 294 293 291 290 290 290 291 291 291 291 290 290 290 289 289 289 290 291 290 289 288 289 287 284 283 281 281 279 280 279 279 279 278 277 277 277 277 276 275 274 273 272 271 270 270 270 269 268 268 267 267 267 267 267 267 267 268 269
277 279 279 279 285 284 283 284 285 287 284 285 284 281 285 290 286 287 286 288 289 290 291 292 292 293 292 291 291 289 287 288 289 288 288 289 289 289 290 290 290 291 292 290 290 290 289 289 288 287 287 284 283 280 279 279 279 278 278 278 278 277 277 277 276 276 276 275 273 272 271 270 270 270 270 269 268 268 267 267 267 267 267 267 268 268 268
285 279 277 279 278 275 282 289 290 293 292 292 291 287 284 281 279 285 286 285 286 285 286 286 287 288 286 285 285 287 288 288 289 288 288 288 289 289 289 288 288 288 288 288 288 287 288 288 287 285 281 281 280 279 279 278 278 277 278 278 278 278 278 277 276 276 276 275 273 272 271 270 270 271 270 269 268 268 267 266 267 267 268 267 268 268 268
282 280 277 276 275 279 285 282 287 288 290 291 289 284 280 281 278 282 287 285 285 284 284 285 286 284 281 282 284 288 288 288 287 287 288 288 288 289 288 286 286 286 286 286 286 285 284 285 282 279 279 279 280 279 278 277 278 277 277 278 278 278 278 277 276 276 275 275 274 272 271 271 271 270 269 268 268 267 268 268 267 268 268 267 267 267 268
281 280 278 276 282 279 278 281 284 287 286 289 285 275 274 277 279 282 286 284 283 282 283 283 282 281 278 280 283 287 288 288 288 287 288 288 288 288 288 289 287 286 285 285 287 288 286 283 277 278 278 278 279 279 277 276 277 277 278 279 279 278 277 276 276 275 275 274 274 272 272 271 270 270 269 267 267 267 268 268 267 267 267 267 266 266 267
281 281 279 282 282 282 280 281 285 286 287 285 279 273 272 277 280 282 284 282 282 281 282 282 278 281 283 284 286 287 287 286 286 287 288 287 288 287 287 287 288 288 288 285 286 287 287 282 278 278 277 278 278 277 276 276 277 278 278 277 277 277 277 276 275 275 275 274 273 272 272 271 270 268 268 267 267 267 267 267 267 266 266 266 266 266 266
277 279 277 277 282 280 283 284 285 286 284 278 272 275 280 281 280 284 283 281 282 282 283 281 281 282 283 284 284 284 284 284 285 285 286 287 287 287 287 287 287 287 288 287 287 288 286 280 278 278 280 280 278 276 276 276 278 276 276 276 276 275 275 275 274 274 273 273 273 272 271 270 268 267 267 267 267 267 267 266 266 265 266 265 265 266 266
276 276 274 273 272 280 284 283 281 284 273 274 280 281 281 282 283 282 281 281 280 282 281 281 281 282 282 282 283 283 284 284 284 284 284 284 285 285 285 286 287 287 287 288 288 287 286 279 279 280 279 280 279 278 277 279 277 276 275 275 275 274 273 272 272 272 272 271 271 270 269 269 268 267 266 266 266 266 266 266 265 265 265 265 265 265 265
271 271 270 271 277 278 284 281 274 279 279 282 282 281 280 283 283 282 281 281 281 282 281 280 281 282 282 282 283 283 284 284 284 284 285 285 285 285 285 285 286 286 287 287 288 288 286 279 279 281 280 281 280 279 280 279 276 275 274 274 273 272 272 271 270 270 270 270 270 269 268 268 267 266 265 265 265 265 266 265 265 264 264 264 264 264 265
273 269 274 278 281 282 284 283 279 280 281 281 282 283 281 280 280 282 280 280 281 281 281 281 281 281 282 282 283 282 283 284 284 284 285 285 285 285 285 286 286 286 286 286 287 287 286 280 279 280 280 281 280 278 279 277 276 274 273 272 271 271 271 270 270 269 269 268 268 268 267 267 267 266 265 264 264 265 265 265 264 264 264 264 264 265 265
279 279 280 281 281 280 279 281 281 280 280 283 284 282 279 280 282 282 280 281 281 281 282 281 281 281 280 280 281 282 283 283 284 285 285 285 286 286 286 287 287 287 288 288 287 286 286 283 279 279 280 281 281 282 275 275 275 274 272 271 271 270 270 269 269 268 267 267 267 267 267 267 267 266 265 265 264 265 265 264 264 264 264 264 265 265 265
273 267 277 276 277 278 278 279 280 279 282 282 280 279 280 281 280 280 281 281 281 281 281 280 279 278 279 279 280 281 281 282 282 282 282 283 284 285 285 286 287 287 287 288 288 287 286 285 282 281 281 281 282 281 275 276 274 273 272 272 271 270 269 268 267 267 267 266 265 266 266 266 266 266 265 265 264 264 264 264 264 264 265 265 265 265 265
270 270 275 276 277 278 279 278 277 277 277 277 278 279 279 280 280 279 280 281 280 280 278 278 277 277 278 278 279 279 280 280 281 281 281 282 283 284 285 285 286 286 287 287 287 287 287 287 285 282 280 281 281 280 276 275 273 272 272 272 271 269 268 267 266 266 266 265 265 265 265 265 265 264 264 265 264 264 264 264 265 265 265 265 265 265 265
272 275 275 275 275 276 276 277 277 277 277 277 277 278 277 277 276 277 279 279 278 278 277 277 276 276 277 278 278 278 279 279 279 280 281 282 282 283 283 284 285 285 286 286 286 286 287 288 287 285 282 281 281 279 276 274 273 272 272 270 270 268 267 266 265 265 266 265 265 265 265 264 264 264 264 264 264 265 267 267 267 267 266 266 266 267 266
268 269 272 274 269 269 274 276 276 274 275 274 273 273 273 274 274 276 276 276 277 277 277 276 276 275 276 277 277 277 278 278 279 279 280 280 281 282 283 284 284 284 285 285 285 285 286 287 287 286 284 282 279 278 275 273 272 272 271 269 268 267 266 265 265 264 264 264 264 264 264 264 263 264 266 268 267 266 266 270 272 272 272 267 267 267 266
268 274 275 275 275 274 275 275 274 274 273 272 271 272 272 273 274 274 273 273 273 274 275 276 275 275 275 275 276 276 276 277 277 278 278 278 279 280 281 281 282 282 283 284 284 285 285 285 286 285 284 282 279 276 275 273 272 272 270 269 268 266 265 265 265 264 264 263 264 264 264 263 263 263 264 267 271 271 270 271 272 273 273 272 273 271 268
276 277 276 275 273 274 275 275 273 273 273 271 271 272 272 273 272 272 271 271 271 271 272 273 273 273 273 274 274 274 274 275 275 276 276 277 278 279 279 280 280 281 281 282 283 284 285 285 285 285 284 282 279 276 274 272 272 272 270 269 268 266 265 265 264 264 264 263 263 264 264 263 263 263 264 264 267 271 272 273 274 274 274 274 273 272 272
274 277 273 273 273 273 274 274 273 273 271 271 270 270 271 270 270 271 270 270 270 270 269 269 270 271 271 272 272 272 272 273 273 274 275 276 276 276 277 277 278 279 280 282 282 283 284 285 285 284 283 281 278 275 273 272 271 271 270 270 269 268 266 265 264 264 264 263 263 264 263 263 263 264 265 265 265 266 270 275 275 275 275 274 274 273 273
274 272 271 271 271 272 273 271 271 271 270 270 269 269 269 270 269 269 268 268 268 268 268 268 269 270 271 270 270 270 270 270 271 272 271 271 271 272 272 273 275 276 277 278 279 280 281 282 283 283 283 282 278 274 272 271 271 271 271 270 270 268 266 265 264 264 264 263 263 264 264 264 264 265 266 266 266 267 268 269 270 273 275 274 274 274 273
268 269 268 270 272 274 271 268 268 269 269 269 268 268 268 268 269 268 267 267 266 267 267 268 269 269 269 269 268 268 267 268 268 268 267 268 268 269 271 272 273 273 273 273 274 275 276 276 278 280 281 283 280 274 271 270 270 270 270 269 268 267 265 265 264 264 264 263 263 264 264 264 265 266 266 267 267 267 268 267 267 267 268 270 273 274 271
267 267 269 266 268 267 267 268 267 267 268 268 267 266 267 267 265 263 263 264 265 265 266 266 265 265 265 265 265 264 265 264 264 264 265 265 267 268 268 269 269 269 270 271 271 272 272 273 274 275 278 281 282 274 271 270 270 270 270 269 268 267 265 265 264 264 264 263 263 264 264 264 266 266 267 267 267 267 268 268 267 266 267 268 269 272 273
265 265 265 265 265 266 267 266 266 266 266 266 266 266 264 262 261 262 262 263 264 264 263 264 264 264 263 263 263 262 262 262 262 262 263 264 264 265 266 266 267 267 267 268 268 269 270 271 272 273 276 279 279 272 271 269 269 269 269 268 268 267 266 265 264 264 264 264 264 264 266 265 266 266 266 266 266 267 267 266 265 265 263 261 266 267 268
263 264 263 263 264 264 263 263 263 263 263 264 263 263 263 261 260 261 262 262 262 261 262 262 262 261 262 261 260 260 260 260 261 261 262 262 262 263 263 264 264 264 265 266 267 269 270 271 272 273 275 277 278 271 269 268 269 269 269 269 268 267 266 265 264 264 263 263 264 265 265 265 266 266 266 265 265 265 264 263 263 262 262 263 265 262 262
261 261 260 261 260 262 261 261 261 262 262 262 262 261 261 261 260 260 260 261 261 261 261 260 260 259 259 259 259 260 260 260 260 260 260 260 261 261 262 262 262 262 264 265 267 268 269 270 271 272 274 276 276 271 269 268 268 268 268 268 267 268 267 267 266 264 263 263 264 265 265 265 265 265 264 264 264 264 263 262 261 261 261 261 261 261 261
258 258 258 260 260 259 259 260 260 260 260 260 259 259 259 259 258 258 259 259 259 259 259 258 258 258 258 258 258 258 258 258 259 259 259 259 260 260 261 262 263 265 265 266 267 269 269 271 272 274 276 277 276 271 269 269 268 268 268 267 266 266 266 267 266 265 264 264 264 265 264 264 264 264 263 263 263 262 261 261 260 260 260 259 259 259 258
256 256 258 258 257 257 257 258 257 258 258 258 258 259 259 259 259 259 259 259 258 258 257 257 257 257 258 258 257 257 258 258 258 258 258 259 260 261 262 263 264 265 265 266 267 268 268 268 270 272 273 275 274 270 269 269 269 268 268 268 267 266 265 267 266 265 264 264 264 264 264 264 264 263 262 262 262 261 261 260 259 259 259 258 258 257 257
256 256 257 257 256 256 256 256 257 257 258 258 258 258 258 258 258 258 257 257 257 257 257 257 257 257 257 257 257 257 257 257 257 258 258 259 260 261 262 263 264 265 266 267 268 269 269 270 272 273 275 275 272 269 268 268 268 269 268 267 266 265 265 265 265 264 263 263 263 263 263 262 262 262 261 261 261 260 259 259 258 258 257 257 256 256 260
258 258 258 257 257 257 258 257 257 257 256 256 256 256 257 257 257 256 257 257 256 256 257 257 257 257 257 257 257 257 257 257 257 258 259 260 261 262 263 264 265 267 267 268 269 270 271 272 273 274 275 273 270 268 268 268 268 268 267 267 266 265 265 265 264 263 263 263 263 262 262 261 261 260 260 260 260 259 258 258 257 257 256 255 255 255 259
257 256 256 256 256 256 256 256 256 256 255 255 255 255 255 256 256 256 255 256 257 257 257 257 257 256 256 256 256 257 257 259 259 260 261 262 263 264 265 265 264 263 263 264 267 270 272 274 270 268 272 270 268 267 267 267 268 267 267 266 265 265 264 264 263 263 263 262 261 261 261 261 260 259 259 259 259 258 258 257 256 256 256 255 255 254 255
256 255 255 255 255 255 254 255 255 255 255 254 255 255 255 255 255 256 256 256 256 256 256 256 256 256 256 257 258 259 260 260 260 260 261 262 264 263 261 260 261 261 263 263 266 267 267 267 265 265 266 266 265 266 265 265 266 266 266 265 265 264 263 263 262 262 261 261 261 261 260 259 259 258 258 258 258 257 257 256 255 255 255 255 255 255 253
254 254 253 253 254 254 254 254 254 254 254 254 254 255 255 255 255 256 255 256 256 256 257 257 257 257 258 259 259 258 258 259 260 261 262 262 260 259 258 259 260 262 261 261 261 260 260 262 263 264 266 265 264 265 264 264 265 266 265 265 264 263 262 262 261 260 260 260 259 259 258 258 258 257 257 257 257 256 256 255 255 254 254 254 254 253 253
253 254 254 254 254 253 253 254 254 254 254 253 253 254 255 255 256 256 256 256 257 257 257 257 258 258 258 258 257 258 258 259 260 259 259 259 258 257 257 258 259 260 258 257 257 258 259 260 261 263 263 263 264 264 263 263 263 265 264 263 263 262 261 261 260 260 259 259 258 258 258 257 257 256 255 255 255 255 255 255 254 254 253 253 252 252 251
252 252 252 253 252 253 253 253 253 253 253 254 253 253 254 255 255 256 256 256 257 258 257 257 257 257 257 256 256 256 257 258 258 258 257 257 256 255 255 256 258 257 257 258 258 259 259 260 261 262 262 263 263 263 263 263 263 264 263 263 262 261 261 260 260 259 258 258 257 256 257 256 256 256 255 255 254 254 254 253 253 252 252 252 251 251 250
252 252 253 252 252 252 252 252 252 253 253 254 254 255 256 256 256 256 256 255 256 256 257 257 257 257 256 256 256 255 256 257 257 256 255 256 254 253 253 253 256 257 257 258 259 259 260 260 261 261 262 263 263 262 263 262 263 263 262 262 261 260 260 259 258 258 257 257 257 257 256 255 255 254 254 254 254 253 253 253 252 252 252 251 250 250 250
252 252 252 252 252 252 252 252 253 252 253 254 255 256 257 257 256 256 256 256 256 257 257 258 258 257 256 255 254 254 254 255 255 254 254 255 254 253 252 253 256 257 258 258 259 259 260 260 261 260 262 262 262 261 261 262 262 262 261 261 260 259 259 258 258 257 258 257 257 256 255 254 254 254 254 253 253 252 253 252 252 252 252 251 250 250 250
252 251 251 251 251 252 252 252 252 253 254 255 256 256 257 257 256 256 256 256 256 256 257 256 256 256 254 253 253 252 253 254 253 253 254 255 255 255 254 254 256 256 257 257 257 257 258 259 259 260 260 261 260 259 260 261 261 260 259 259 258 258 258 258 258 257 256 255 255 255 254 254 253 253 252 252 252 252 252 252 252 251 250 250 250 249 249
251 251 251 251 251 252 253 253 254 254 254 255 256 256 256 256 255 255 255 255 255 255 254 254 254 253 253 252 252 252 253 253 253 253 253 253 254 255 255 255 255 256 257 256 256 257 257 258 258 258 258 258 258 259 260 259 259 258 258 258 258 258 257 257 256 256 256 255 255 255 254 254 253 253 253 252 252 252 252 252 252 251 251 250 249 249 249
251 251 251 252 252 253 253 254 254 254 255 255 256 255 255 255 255 255 255 255 254 253 254 253 252 252 252 252 252 252 253 254 253 253 251 250 251 251 254 255 255 256 256 256 256 257 257 258 258 258 258 258 258 258 259 259 258 258 258 257 257 257 257 256 256 256 256 255 255 255 254 254 254 253 253 253 253 253 252 252 251 251 250 249 249 249 249
251 252 253 254 253 253 254 255 256 256 255 255 254 254 255 254 254 254 255 254 253 253 253 253 252 253 253 252 253 253 254 254 253 253 253 252 251 252 255 255 255 256 256 256 256 257 257 257 257 258 258 258 258 258 258 258 258 258 257 257 257 256 256 256 256 255 255 255 255 255 254 254 254 254 254 253 253 252 252 251 251 251 250 250 249 249 248
252 253 253 253 254 254 255 255 255 255 254 253 252 252 253 254 254 254 254 254 253 253 253 253 253 253 253 253 252 252 251 252 252 253 253 253 254 255 255 255 256 256 256 256 256 256 257 257 257 257 257 257 257 258 258 257 257 257 256 256 256 256 255 255 255 254 254 254 254 253 253 253 253 253 252 251 252 251 250 250 250 249 249 248 248 247 247
252 252 253 253 254 255 255 255 254 253 252 252 252 253 253 253 253 253 253 253 253 253 253 253 253 253 253 253 253 253 252 251 250 250 253 253 254 254 254 254 255 255 255 255 255 256 256 256 256 256 256 256 257 257 257 257 256 256 256 255 255 254 254 254 254 253 253 253 253 252 252 252 252 251 251 251 250 250 250 250 249 248 248 248 248 247 247
253 253 253 255 255 255 254 253 253 252 252 253 253 253 253 253 253 253 253 253 253 252 252 252 252 253 253 253 253 253 253 253 252 250 253 253 253 253 254 254 255 255 255 254 254 255 255 256 256 256 255 255 255 255 254 255 254 254 254 254 254 253 253 253 253 253 252 252 252 252 251 251 251 251 250 249 249 249 249 249 249 248 247 247 246 245 245
253 253 254 254 254 254 253 253 252 252 253 253 252 253 253 253 251 251 252 252 252 253 252 252 252 253 253 253 253 253 253 253 253 253 253 253 253 253 253 253 254 254 254 253 253 253 253 254 254 254 254 254 254 253 253 253 253 253 252 252 252 252 252 252 252 252 251 251 251 251 250 250 250 249 249 249 248 248 248 248 247 247 247 246 246 245 244
253 254 254 255 255 254 254 253 253 253 253 253 253 253 253 252 252 252 252 252 252 252 251 252 252 252 252 252 253 253 253 253 253 253 253 253 253 253 253 253 253 253 253 253 252 252 252 253 252 252 252 252 252 252 252 252 252 252 252 252 252 251 251 251 251 251 251 250 250 250 249 249 249 248 248 247 247 247 247 246 246 246 246 246 245 245 244
254 255 256 255 254 254 254 254 254 254 253 253 253 253 252 252 252 252 252 253 252 252 251 251 250 252 252 252 252 252 253 253 253 253 253 253 252 252 252 252 252 252 252 252 252 252 252 252 252 252 252 252 251 251 251 251 251 251 251 251 251 251 250 250 250 249 249 249 249 248 248 248 248 247 247 246 247 247 246 246 245 245 245 244 244 244 243
Wind_Speed
22 26 26 24 20 18 19 19 19 21 19 14 16 20 22 19 17 23 18 19 21 20 21 25 28 29 29 28 24 16 13 10 9 9 11 13 14 9 4 7 7 12 14 14 14 12 12 12 12 13 12 11 10 10 10 10 11 14 13 13 13 14 14 16 16 15 12 10 9 10 12 12 13 13 12 11 10 10 10 10 9 10 9 10 11 10 8
20 22 23 23 24 23 22 22 23 24 23 21 19 20 19 20 22 20 18 18 22 16 17 22 28 29 28 24 18 15 15 16 15 15 15 15 15 11 6 10 13 15 15 14 13 11 11 12 14 13 12 12 13 14 14 12 13 13 12 14 15 15 16 17 14 12 12 11 11 11 12 14 14 13 12 12 11 11 10 10 9 9 9 9 9 10 10
18 21 22 22 23 24 26 24 23 22 21 21 23 21 20 20 23 22 25 24 25 18 20 22 23 22 21 19 20 24 24 23 24 21 17 16 15 12 10 13 15 12 12 14 13 11 13 15 15 14 14 15 13 13 11 10 13 13 13 14 14 15 17 14 12 11 12 12 12 13 13 12 11 13 13 12 11 11 10 9 10 9 10 11 10 10 11
13 12 19 22 22 24 26 25 23 21 22 25 23 21 21 20 23 24 23 21 20 21 25 26 25 26 24 25 25 26 25 28 25 23 21 18 15 13 15 14 12 12 14 16 13 15 17 17 15 13 13 13 11 13 12 13 13 11 13 13 15 15 14 11 12 13 13 13 13 12 12 13 13 13 12 12 12 12 11 11 10 10 11 11 10 10 9
15 10 17 20 22 21 21 20 22 29 30 25 21 22 21 22 22 21 18 22 21 24 20 22 21 23 25 24 23 25 26 27 28 25 21 17 14 15 18 18 16 16 16 15 16 17 16 15 15 15 16 12 12 14 13 15 10 12 14 14 14 12 11 12 13 13 12 14 14 13 14 13 13 13 14 14 13 13 14 12 10 12 11 10 9 9 9
11 11 18 14 14 19 19 15 28 28 28 27 28 24 25 28 22 20 21 24 20 20 17 21 23 24 24 22 21 19 19 20 20 18 16 17 17 14 12 12 12 12 12 12 13 15 16 17 17 16 13 15 16 14 12 7 12 13 13 12 12 12 11 12 13 13 13 14 14 14 13 13 13 14 14 15 13 11 10 10 11 10 10 11 10 10 10
9 10 12 12 20 17 9 12 13 22 27 27 28 28 27 27 26 29 28 26 24 25 23 22 22 21 21 20 21 21 18 9 9 18 21 20 18 16 13 12 11 12 11 11 12 12 13 16 14 11 10 11 11 6 9 12 12 13 13 13 12 12 13 13 13 13 14 15 15 14 14 14 14 14 15 13 13 12 12 13 13 13 13 12 10 10 9
10 7 8 16 13 2 5 4 13 15 19 21 22 25 24 24 25 25 25 23 23 22 22 21 20 20 20 19 16 14 10 11 10 11 12 14 15 16 14 11 11 10 10 12 13 14 14 10 10 9 12 10 9 11 8 12 11 12 12 12 13 11 12 13 15 15 15 15 14 14 14 14 15 16 15 15 16 12 11 9 7 7 7 7 10 10 9
14 12 14 19 11 14 6 2 5 9 12 12 17 21 19 9 13 15 14 17 18 18 16 15 15 15 15 12 12 6 12 10 9 7 9 11 12 13 14 14 13 13 13 10 10 10 9 8 9 11 10 6 8 6 8 8 10 10 11 12 13 15 14 14 15 15 15 16 15 15 15 16 16 16 15 13 12 10 12 11 11 11 11 10 10 10 11
12 14 16 14 12 15 11 15 14 18 22 21 19 16 13 14 16 16 12 11 13 16 18 20 19 7 5 10 4 10 15 10 12 10 8 10 12 13 13 15 14 13 12 11 10 6 9 10 9 5 2 5 7 7 8 8 10 11 13 14 15 15 16 15 15 15 15 15 16 16 15 18 17 14 12 11 12 12 14 13 12 12 9 6 6 7 8
12 17 16 15 15 12 8 14 15 15 14 10 7 7 10 9 14 18 12 13 14 16 17 16 16 14 6 5 7 11 16 16 10 12 11 10 9 11 10 9 12 14 12 11 9 8 6 7 9 3 2 5 7 7 8 9 9 11 14 15 13 16 17 15 14 14 14 15 16 17 17 17 15 16 15 15 12 11 11 12 12 9 7 7 6 4 5
11 15 16 15 6 4 9 11 15 16 15 12 3 10 4 14 17 12 7 13 16 17 14 14 13 12 10 12 14 17 17 13 11 9 13 14 16 13 12 13 10 8 8 11 13 12 10 8 3 1 1 2 4 5 6 6 9 11 14 17 15 10 9 12 13 13 14 16 16 17 17 14 12 13 11 10 12 12 10 11 12 8 7 7 9 8 8
18 22 20 13 7 5 8 9 16 18 14 3 4 6 9 18 18 15 8 12 13 13 11 10 11 10 5 11 14 16 17 16 18 15 10 13 11 11 13 13 12 12 12 8 8 9 8 3 1 2 4 4 4 4 5 7 12 14 6 2 3 5 5 8 11 13 12 14 15 13 12 13 12 11 11 12 12 12 12 10 12 9 8 7 7 8 8
12 12 15 13 4 4 12 18 13 11 9 5 3 9 11 10 15 13 12 16 13 12 8 9 9 12 13 12 13 15 15 15 16 16 16 17 17 16 12 11 10 12 13 12 10 10 9 2 3 5 5 5 4 4 5 10 12 2 4 6 7 8 8 7 7 9 10 10 10 11 11 11 12 11 9 9 11 13 11 10 11 8 8 7 7 7 8
9 5 7 6 9 3 19 16 16 10 6 7 7 8 7 7 7 15 16 12 12 9 12 12 11 14 16 15 15 15 15 16 17 17 17 17 17 18 18 20 18 14 13 14 14 12 10 5 3 4 5 6 6 6 9 11 4 5 5 7 8 9 10 10 10 9 9 11 11 10 11 12 13 13 11 11 12 12 14 9 9 10 9 8 8 8 7
5 7 5 3 7 16 13 10 2 8 5 5 3 2 7 9 7 6 10 11 10 10 12 15 17 15 14 16 14 14 14 14 15 15 15 14 13 14 14 11 12 12 14 14 15 13 11 6 3 3 5 6 6 8 14 7 7 7 8 8 10 10 10 10 10 10 10 11 10 10 12 13 13 13 13 13 13 13 12 16 12 8 8 7 7 7 7
5 5 11 13 15 13 6 3 7 10 8 2 3 5 9 9 10 5 5 11 9 9 10 13 14 15 14 13 14 15 15 16 15 15 15 15 15 15 16 15 13 9 11 15 16 16 14 8 5 3 3 5 5 9 6 6 8 10 10 10 10 10 11 11 11 9 9 9 10 11 11 13 14 13 13 15 14 12 14 10 9 9 8 7 7 6 6
9 11 8 12 11 12 14 15 11 9 3 5 6 6 9 8 6 6 8 6 8 8 7 8 10 10 14 18 18 15 14 15 15 14 14 15 14 13 12 14 15 13 13 13 13 13 13 9 6 4 4 5 8 10 3 6 6 8 10 12 12 12 11 10 12 12 12 10 10 11 12 11 13 13 15 15 14 13 10 8 7 8 9 9 7 7 7
11 12 6 8 8 16 20 20 10 2 6 6 4 6 5 3 4 5 6 7 8 8 7 9 11 15 15 16 17 16 15 15 16 17 17 17 15 15 15 14 14 14 13 13 14 14 13 9 6 7 8 9 11 7 7 7 8 9 10 10 11 11 12 11 11 12 14 11 10 10 11 10 10 11 12 11 8 9 9 9 9 9 9 10 9 7 8
10 13 12 14 15 16 15 12 12 9 4 3 4 2 2 3 4 6 7 7 7 8 9 9 12 14 15 15 16 17 17 16 15 16 16 17 18 16 12 12 13 13 13 14 14 14 14 13 7 8 10 11 11 7 4 7 8 10 11 12 12 12 13 12 12 12 13 14 15 9 12 13 13 12 11 7 10 12 12 12 12 10 10 8 9 12 11
11 15 16 13 13 11 13 12 7 9 5 1 0 0 1 3 4 6 6 5 9 10 12 13 13 14 14 15 15 16 16 17 16 16 17 17 17 17 17 15 12 12 13 14 14 15 15 13 11 8 11 12 9 9 8 8 10 12 11 11 10 11 11 11 11 11 12 13 12 13 12 11 12 10 7 9 8 4 11 12 15 16 15 13 12 13 12
11 11 13 10 11 11 13 15 10 3 4 6 6 6 6 7 8 7 7 9 10 11 11 12 11 12 15 15 15 16 15 16 18 18 17 17 18 18 16 14 15 15 14 14 14 15 15 14 13 11 12 12 9 8 8 9 10 12 10 9 9 10 10 11 10 11 11 11 12 13 13 13 11 9 5 12 13 12 13 15 15 12 14 14 15 13 12
14 14 13 8 9 12 11 13 3 3 2 5 10 11 10 7 6 6 9 12 13 13 14 12 14 14 15 16 15 16 14 16 16 17 19 19 18 18 19 18 17 16 16 15 15 16 16 14 13 13 13 12 9 8 10 10 12 12 11 10 9 9 10 11 12 13 13 12 13 13 12 12 13 12 10 11 17 17 10 14 14 14 12 13 18 16 14
19 18 15 5 5 12 13 8 4 3 2 3 7 8 9 9 8 9 9 9 10 12 13 14 13 15 15 16 14 15 16 16 16 17 17 19 19 19 18 17 17 18 18 17 16 16 15 14 14 13 13 12 10 10 11 11 12 12 13 12 12 12 12 11 12 13 12 13 13 14 13 11 14 14 14 13 12 16 16 16 17 16 15 18 19 18 17
16 10 3 2 4 8 7 5 3 2 3 7 7 8 7 10 12 10 11 11 9 10 11 15 16 13 13 14 14 15 15 17 16 17 19 19 19 19 19 19 19 17 16 15 15 15 16 16 16 14 13 13 10 9 10 12 12 13 14 13 13 11 11 11 11 13 11 13 14 14 15 16 15 15 15 15 13 13 13 18 19 19 20 21 21 19 19
4 4 4 3 4 8 5 3 4 1 8 8 8 8 9 7 10 12 11 11 12 12 12 13 15 15 13 14 13 14 15 18 18 17 15 16 18 18 20 18 17 15 15 15 17 18 18 19 18 16 15 14 11 10 11 12 13 14 15 15 15 11 12 13 13 13 13 14 15 14 14 15 16 16 15 15 16 16 15 13 13 15 18 21 21 21 20
5 3 4 9 11 13 1 3 6 11 11 9 9 11 11 10 10 10 12 13 13 12 12 13 13 14 14 13 14 13 14 18 17 16 15 16 19 17 16 14 16 18 18 18 17 20 20 21 20 19 19 17 13 10 12 14 14 14 14 13 10 10 13 12 11 13 12 11 10 12 12 14 15 14 14 14 15 16 16 16 16 15 12 13 18 20 16
4 4 3 2 8 6 10 11 7 9 9 8 11 12 12 11 11 11 14 15 13 11 12 11 10 12 15 14 12 15 14 14 15 17 17 17 14 16 17 18 16 18 18 18 19 18 20 15 19 22 23 22 16 9 12 14 15 15 15 14 12 10 11 14 12 11 12 14 13 12 14 15 14 12 12 13 14 13 13 13 14 14 12 10 11 17 23
5 4 4 3 6 10 11 11 10 9 10 10 9 9 7 10 14 14 14 13 13 13 15 15 11 11 11 13 12 14 14 15 14 18 18 18 17 17 17 19 19 19 21 22 21 19 17 18 17 20 21 21 17 8 11 12 13 14 13 12 12 11 11 12 12 10 10 11 12 13 12 12 11 11 11 11 10 11 11 13 12 10 12 13 12 12 11
6 4 5 6 8 8 9 9 10 11 10 8 9 11 9 9 13 16 16 16 13 14 16 15 14 15 12 13 14 11 13 15 17 16 17 20 17 19 17 16 17 21 18 21 20 18 15 16 17 17 20 19 15 6 10 12 13 15 15 15 13 13 12 12 11 12 12 12 13 16 14 13 11 12 12 12 12 12 12 12 13 14 13 11 11 13 14
10 6 7 10 6 4 5 12 12 13 11 8 9 12 14 11 12 15 18 18 16 15 15 14 15 16 17 13 13 14 14 15 15 17 19 18 19 16 15 14 16 18 19 17 20 18 18 19 19 20 19 18 14 10 11 12 11 11 10 10 11 10 12 16 14 13 12 13 14 15 13 13 12 12 12 13 12 12 12 12 13 11 11 11 11 11 10
15 14 3 1 3 8 10 7 9 11 12 12 12 13 11 11 15 19 20 19 18 17 17 19 17 18 16 14 14 14 16 14 18 17 18 16 15 15 14 14 16 20 21 21 18 19 17 18 18 19 15 14 14 11 12 12 11 11 12 12 11 10 13 20 13 14 13 14 14 13 13 14 13 12 12 13 14 13 13 13 12 12 11 11 11 10 9
12 15 16 15 17 16 16 11 5 11 13 16 16 13 12 11 11 13 15 16 18 18 16 15 16 16 16 16 16 17 14 16 16 20 18 17 16 15 14 13 15 18 20 19 19 18 20 19 21 20 20 20 14 11 12 13 13 12 11 10 10 10 11 15 14 13 13 14 14 14 13 13 13 13 13 12 12 12 12 13 13 12 11 10 10 8 8
6 5 9 9 7 12 16 22 20 17 16 15 15 14 15 14 13 14 15 14 17 19 18 17 16 16 15 15 16 17 17 15 17 13 16 15 18 17 16 16 17 18 20 19 18 16 14 17 17 18 18 16 11 11 12 12 11 10 10 11 11 11 12 12 15 13 13 13 12 13 13 12 13 13 13 12 12 12 12 12 11 11 11 9 8 8 11
8 10 11 12 11 12 13 15 17 17 17 20 21 19 15 14 14 16 17 17 17 18 17 16 16 15 15 16 15 15 17 17 17 20 18 18 16 18 16 18 17 18 17 18 15 14 16 17 19 19 20 15 11 11 11 13 12 10 11 12 12 11 12 12 14 14 14 14 13 13 13 13 12 11 13 14 13 12 12 11 12 11 11 10 9 8 9
9 11 10 10 11 11 14 15 15 16 17 18 19 19 20 18 18 19 19 19 16 16 16 17 16 16 16 16 15 16 17 17 17 18 18 17 18 16 15 16 20 24 25 26 19 15 18 14 14 16 14 9 9 10 11 11 11 11 11 11 11 11 11 12 11 11 11 12 13 13 12 13 13 12 12 11 11 12 12 12 11 10 10 10 10 12 2
7 11 12 13 12 12 14 14 14 15 17 17 18 19 21 20 18 18 17 17 17 16 16 16 16 15 17 15 16 15 14 13 16 15 18 17 14 14 16 20 20 20 21 19 13 10 14 16 22 24 15 8 7 9 10 14 10 10 11 11 11 12 12 12 12 12 12 12 12 12 13 12 11 11 11 11 12 11 12 11 10 10 10 10 9 7 7
11 10 13 13 14 14 15 14 14 16 19 23 19 16 18 20 18 17 17 17 17 17 16 16 15 16 14 17 14 15 15 17 16 17 15 16 15 16 14 12 15 14 15 14 15 14 14 17 23 17 11 8 8 7 11 16 14 12 11 11 11 12 12 12 12 12 13 13 11 12 12 12 13 12 11 11 11 11 10 10 10 11 10 9 8 7 6
14 11 10 11 12 13 15 14 12 14 14 19 21 19 16 17 18 18 18 17 16 16 16 16 16 17 15 14 12 15 16 14 15 17 18 15 12 12 12 13 16 12 11 14 15 14 14 15 11 9 6 3 4 6 11 15 16 11 10 11 12 12 12 12 13 13 12 13 13 13 12 12 12 13 15 15 13 10 9 11 11 10 10 9 8 7 6
13 13 14 14 14 13 14 15 14 14 14 14 16 19 17 16 16 16 17 17 16 16 17 17 17 13 14 15 16 14 15 16 15 16 17 15 13 14 13 12 10 11 13 16 12 9 11 11 8 4 2 1 3 6 8 12 12 9 10 11 11 11 12 12 13 13 12 12 13 14 13 12 12 11 11 10 9 10 10 10 10 9 9 8 7 7 6
14 15 14 14 15 14 14 16 16 15 14 15 14 16 15 15 16 16 17 17 17 16 17 15 14 14 14 15 16 17 17 16 15 15 16 14 10 10 9 11 11 12 13 11 10 9 10 8 6 4 4 3 4 7 8 11 9 9 9 10 11 11 12 12 12 12 12 13 13 13 13 11 12 14 10 9 10 11 10 9 9 8 7 8 8 7 6
15 15 15 15 15 14 15 15 15 16 15 14 15 15 15 15 15 16 16 16 16 15 15 15 16 16 15 14 15 16 17 14 13 14 15 12 7 8 9 9 11 10 16 14 11 10 8 7 7 5 5 5 6 10 10 9 9 9 9 9 10 10 11 11 11 10 10 10 12 11 10 12 18 16 12 12 11 10 7 7 6 6 6 6 7 7 8
15 16 16 15 15 15 15 15 15 17 17 16 15 14 14 13 13 13 14 15 16 15 15 13 12 14 13 13 13 15 13 10 12 13 13 9 6 6 9 10 10 10 16 10 9 7 7 6 6 6 9 8 9 13 13 10 9 9 9 10 10 10 10 11 11 10 11 9 9 9 8 7 8 10 10 11 10 7 7 7 7 8 7 5 7 8 6
16 15 14 15 15 15 15 15 16 15 16 15 13 13 13 12 12 13 14 16 13 12 14 12 12 12 12 11 11 10 9 8 9 9 9 8 7 7 12 9 7 10 15 8 6 6 7 7 7 12 16 16 17 16 11 10 10 10 11 11 10 10 10 10 10 11 12 12 11 8 9 10 8 8 8 8 7 7 8 8 6 5 5 6 7 6 8
15 14 15 15 16 15 14 13 14 15 14 14 14 12 12 12 13 13 15 11 11 13 11 10 11 11 10 9 8 8 8 6 8 8 8 8 9 9 10 9 9 7 9 10 8 8 7 8 13 17 16 19 18 17 11 10 11 10 11 10 10 10 10 11 11 11 11 11 11 10 9 8 8 9 8 9 9 9 8 7 8 6 7 7 7 7 6
14 14 14 16 16 15 14 14 13 12 13 14 13 11 10 11 11 13 11 12 13 10 9 11 11 10 10 10 8 8 7 5 7 8 6 6 6 6 8 9 7 8 12 12 8 9 10 16 18 17 18 18 17 13 11 11 10 10 11 10 10 10 9 9 9 9 10 10 9 8 8 8 9 8 8 8 8 8 8 8 7 7 6 6 6 6 6
14 15 16 16 16 15 15 12 11 12 12 11 11 10 10 11 12 10 10 12 11 10 9 9 9 10 10 10 9 8 7 6 6 7 8 7 7 7 9 12 12 14 12 10 9 9 10 13 16 19 19 18 16 11 10 10 10 10 10 10 10 9 8 8 9 8 10 10 9 9 9 9 10 11 9 9 9 9 8 8 7 7 7 5 6 6 6
17 16 17 18 17 15 13 11 10 9 9 9 10 9 9 9 11 10 10 9 10 8 8 7 8 8 10 10 10 9 8 7 6 8 9 8 7 7 8 8 10 13 14 13 15 16 22 21 21 20 19 16 12 10 10 10 10 10 11 10 8 7 8 8 9 9 9 10 12 15 14 14 13 13 11 11 10 8 8 7 8 7 6 6 6 6 6
19 18 16 14 11 11 11 11 9 9 8 8 9 8 9 9 9 8 8 9 9 6 7 7 8 8 8 9 9 8 8 7 6 5 7 7 7 7 8 10 14 13 11 10 11 11 18 22 20 20 20 16 12 10 8 8 10 10 9 9 8 9 9 8 7 8 9 8 8 9 12 13 12 9 10 9 8 8 5 6 6 6 6 6 5 5 5
14 11 9 9 8 9 9 9 8 7 8 8 8 7 8 8 7 7 7 7 7 7 6 6 7 7 8 7 7 7 7 7 8 7 7 8 8 8 9 9 10 13 14 12 13 12 12 17 16 17 13 9 9 9 8 9 8 9 8 9 8 8 8 9 9 11 11 11 10 9 10 10 11 9 8 8 7 6 5 6 5 6 8 6 6 5 5
10 10 8 7 8 7 8 8 8 8 7 8 7 7 8 7 7 7 6 7 6 6 7 6 7 7 7 7 7 7 7 7 8 8 7 7 8 9 10 8 10 10 11 12 11 10 8 8 8 9 10 10 9 9 8 9 9 9 8 8 7 6 7 8 6 8 8 9 11 11 8 7 7 8 9 8 7 7 6 5 6 5 5 5 5 5 5
11 9 6 7 7 7 7 6 7 7 7 6 6 6 6 6 6 6 6 9 7 6 7 6 7 8 7 7 7 7 7 7 7 7 7 7 7 7 8 9 9 9 9 10 10 11 10 8 9 13 13 10 9 9 9 11 9 8 8 7 6 7 8 7 6 8 8 9 10 12 10 10 9 10 8 8 6 6 6 6 5 5 4 4 4 4 3
Wind_Direction
228 233 238 242 245 242 245 243 245 246 236 231 229 232 235 235 231 245 239 234 241 242 239 249 254 259 261 259 262 271 268 260 253 253 251 253 257 263 244 251 251 250 247 246 245 242 234 230 229 227 223 222 219 220 217 201 192 198 190 187 190 191 192 197 201 197 190 186 192 184 171 165 168 172 172 172 169 167 170 169 169 169 164 158 156 152 149
233 236 237 239 243 245 247 243 243 244 248 244 234 241 239 235 243 249 258 256 252 245 242 242 249 252 259 270 281 278 273 267 260 251 251 260 269 272 226 238 242 241 242 248 247 242 241 234 231 228 224 222 215 212 212 199 196 198 173 191 188 191 196 201 195 185 181 179 180 179 173 172 172 168 167 168 167 168 170 166 160 156 154 155 157 157 152
239 234 234 235 236 240 245 243 244 246 252 256 250 250 250 256 257 254 254 254 257 255 255 253 256 262 266 275 278 275 274 270 262 262 266 270 275 272 239 236 241 245 252 253 246 244 242 238 232 228 224 222 217 217 212 194 200 190 182 188 190 192 200 195 184 176 176 180 173 180 180 169 166 166 168 167 166 166 163 159 156 155 154 157 163 165 162
244 224 236 235 235 239 242 246 247 249 244 245 243 242 237 236 245 248 250 251 252 252 250 254 256 261 264 264 265 268 269 270 277 276 273 270 259 250 252 247 247 255 253 247 240 238 239 239 236 232 231 226 213 216 205 201 199 178 184 188 192 197 195 178 177 177 180 174 174 178 173 175 170 169 162 163 166 165 159 159 162 159 164 168 163 161 160
246 216 226 230 234 239 238 231 236 238 238 237 242 242 244 236 237 244 242 244 238 244 241 251 253 255 255 256 256 260 264 268 269 275 280 278 269 251 252 258 259 252 242 232 229 235 238 240 239 234 228 223 216 215 201 208 171 175 187 190 191 190 182 176 179 178 174 175 177 176 179 172 167 164 166 167 167 165 172 167 156 165 167 160 164 162 162
256 231 240 233 236 226 226 209 219 222 233 232 236 238 237 239 228 236 229 243 245 248 247 243 246 247 249 248 249 248 254 264 279 286 280 269 264 263 263 258 251 243 236 234 233 234 235 237 234 233 224 219 223 214 201 166 169 184 180 187 185 184 177 180 179 177 175 175 178 179 173 169 167 169 170 175 171 166 155 155 164 165 162 164 164 168 171
263 251 251 246 232 241 233 225 223 222 229 233 237 239 237 242 242 247 252 251 250 247 245 245 246 247 252 254 254 256 265 286 287 284 287 291 295 290 284 275 260 254 246 238 239 241 243 240 239 234 234 222 225 184 166 176 182 174 183 180 182 179 180 181 176 176 177 177 178 174 171 169 170 172 173 168 166 167 166 169 169 170 168 167 173 172 171
256 239 221 244 244 75 334 210 210 218 232 235 247 256 254 255 250 252 258 262 262 260 257 254 253 254 255 261 269 287 326 352 341 339 329 324 327 325 317 295 279 268 249 238 237 238 240 244 244 228 230 220 197 202 173 177 176 179 176 179 183 176 181 183 182 180 176 178 176 171 171 171 173 175 175 173 170 165 161 160 157 151 160 165 169 171 168
244 238 235 245 276 278 201 165 216 196 215 210 215 244 248 260 344 343 346 343 334 322 307 294 284 276 275 275 285 24 11 348 356 3 343 337 334 332 332 330 314 302 299 287 266 264 268 250 242 233 229 192 185 163 168 177 170 173 172 181 185 186 188 186 183 180 178 176 174 173 173 174 178 177 174 170 165 160 160 165 164 169 172 173 172 168 166
221 250 257 259 253 249 253 228 224 213 219 218 222 229 247 41 4 353 8 7 8 5 2 357 329 285 260 272 275 360 346 353 337 335 338 338 338 340 341 344 344 337 326 321 309 292 274 274 269 280 182 164 155 164 175 167 166 178 181 192 189 188 192 187 183 179 178 174 174 174 175 181 180 177 171 166 169 169 169 165 170 173 161 141 154 162 162
230 241 243 245 253 258 24 355 345 338 328 291 297 287 258 17 358 340 356 6 22 17 2 356 1 20 22 354 343 338 342 326 335 323 326 330 332 330 338 344 342 334 335 327 322 346 351 335 333 354 126 146 154 175 176 179 179 180 196 198 188 193 194 182 177 175 175 175 176 176 181 182 176 173 174 174 167 166 172 170 170 155 151 141 140 140 154
242 255 253 253 256 289 348 337 339 320 315 280 98 252 153 347 335 322 342 15 17 8 355 360 7 16 355 339 332 326 319 315 310 320 316 327 329 324 331 337 336 324 329 349 348 350 346 329 327 25 110 151 177 177 182 168 184 201 206 205 203 191 166 169 173 173 177 179 179 179 180 173 173 172 162 158 169 171 172 163 132 146 142 145 148 158 162
251 247 252 256 252 89 17 349 342 339 327 55 213 243 4 317 312 330 357 9 1 353 345 4 342 333 317 298 297 304 304 309 313 312 306 303 305 309 320 319 325 328 322 320 309 310 302 274 198 153 138 148 193 184 168 179 209 215 206 118 134 166 169 167 172 176 177 181 177 176 172 169 163 160 167 169 165 171 166 161 139 122 145 144 139 155 165
266 287 285 276 295 111 6 355 15 340 346 303 17 324 277 292 311 326 346 343 346 334 322 328 316 298 298 288 287 294 299 300 300 305 309 312 311 312 309 308 317 318 316 312 310 312 311 268 178 169 158 171 187 175 176 213 222 140 133 149 136 141 158 169 173 174 173 168 166 164 160 156 162 166 165 165 169 169 164 144 150 143 142 148 150 153 166
299 281 277 283 257 24 27 345 347 51 57 289 298 304 299 284 332 333 330 320 310 319 312 309 301 303 305 304 302 300 303 306 307 310 313 314 315 318 324 324 325 325 316 312 310 304 300 276 195 185 163 182 183 185 208 226 173 150 147 149 150 151 155 162 169 169 167 164 163 162 162 163 162 164 160 164 169 168 164 149 148 148 152 151 150 154 160
312 298 283 253 349 328 345 23 352 324 306 244 272 239 310 307 300 294 296 310 310 311 316 315 314 310 307 307 308 308 306 306 306 306 309 308 308 309 308 307 310 321 315 309 307 305 303 288 244 213 182 201 203 200 224 188 162 150 152 152 154 155 158 161 158 162 164 164 162 162 162 160 164 162 164 168 168 172 172 155 145 144 152 147 148 151 155
294 272 289 304 309 312 324 347 310 310 328 132 197 273 292 300 296 254 273 300 309 313 311 313 312 313 319 318 322 322 319 317 318 319 319 321 320 318 316 318 321 317 307 305 306 306 304 297 282 263 242 222 230 231 237 159 169 163 156 153 154 163 161 158 160 158 153 161 163 163 166 164 166 167 164 166 170 178 171 173 159 147 149 153 153 147 151
277 267 264 289 301 317 317 311 312 320 304 188 204 249 295 288 265 288 296 297 311 318 319 319 320 321 320 322 320 317 318 318 319 320 319 318 319 318 319 319 323 322 313 305 299 295 295 296 283 269 253 230 241 244 156 175 167 165 158 158 162 163 162 160 159 154 154 157 162 167 169 175 175 172 167 171 174 174 174 159 156 148 153 155 148 150 155
313 282 313 294 325 314 303 298 306 256 243 250 293 326 322 313 332 342 329 315 317 321 330 330 318 315 315 313 311 313 316 315 315 315 314 311 312 315 314 311 314 316 316 311 309 306 299 291 271 264 250 240 239 238 184 175 164 162 166 167 165 162 163 162 154 160 162 164 165 169 174 173 177 176 175 171 156 160 162 163 166 161 152 152 151 152 150
273 283 298 301 294 275 270 287 304 309 305 321 3 13 38 13 350 338 317 322 324 324 321 314 309 306 306 307 311 312 311 311 311 310 309 309 309 307 303 305 307 307 305 304 303 302 296 290 266 252 252 248 242 229 196 177 168 165 172 175 172 175 169 166 167 171 173 166 166 159 178 178 175 159 161 165 170 177 172 171 158 162 164 160 159 159 157
287 288 287 275 274 279 280 281 290 312 346 27 132 335 329 329 336 328 323 325 313 314 305 310 306 301 304 306 308 309 310 310 310 310 309 308 305 305 308 307 304 299 299 299 296 292 287 287 282 256 251 249 239 212 195 181 173 175 183 182 175 170 170 166 173 175 169 171 176 172 175 178 187 180 158 169 171 138 178 172 174 170 174 178 171 168 157
271 267 277 291 296 293 301 302 312 19 358 360 336 336 342 342 337 327 324 315 305 300 300 304 308 307 308 310 313 311 311 308 308 309 308 307 306 305 303 304 305 301 295 291 290 287 284 283 280 270 257 252 234 209 189 184 181 186 181 174 174 177 177 177 173 172 175 172 174 176 177 174 168 170 199 186 181 168 177 193 201 206 185 177 172 161 158
268 265 262 255 270 285 275 283 344 99 61 2 344 328 325 322 319 333 330 319 317 314 316 318 314 310 308 308 313 308 308 307 308 308 308 308 308 305 305 304 303 299 296 293 290 285 282 279 274 268 260 253 232 205 194 189 189 189 171 175 182 181 179 188 183 179 177 175 177 177 176 168 169 169 163 183 187 189 196 188 191 185 178 166 158 155 147
261 267 278 275 244 269 286 303 354 332 21 11 324 317 318 322 330 328 319 310 308 309 308 309 307 306 306 305 307 304 303 304 306 305 305 305 302 300 300 298 296 297 295 293 289 285 284 281 277 269 263 253 231 210 193 190 190 188 184 179 187 191 191 189 178 182 181 179 175 177 174 165 168 168 168 165 179 193 190 185 178 173 163 157 154 151 146
259 275 303 221 264 271 275 275 270 238 24 350 323 308 320 325 321 322 314 310 306 304 303 300 301 300 301 301 303 302 303 302 302 302 303 301 300 299 298 298 298 299 301 302 300 297 293 290 286 280 271 261 241 209 195 191 189 192 193 194 197 193 187 182 183 185 180 180 182 181 174 172 172 174 171 170 162 159 173 173 166 159 154 152 150 149 147
302 330 317 282 243 255 259 329 286 287 337 330 318 308 315 321 312 314 307 304 302 302 296 289 290 296 298 298 296 300 302 298 299 303 302 298 298 297 295 297 302 307 306 306 302 298 295 292 291 288 280 269 250 212 198 192 194 198 200 202 203 189 182 182 180 186 189 188 185 185 181 176 177 176 176 170 162 156 152 155 155 153 151 149 148 147 151
65 18 360 321 291 280 84 81 292 321 319 320 317 312 314 317 315 310 303 297 290 288 285 286 290 296 297 292 297 296 293 297 302 297 295 293 291 286 290 297 304 307 308 304 300 295 295 297 296 291 284 276 257 213 198 193 195 201 204 203 200 193 185 179 185 192 188 147 179 178 177 177 178 175 170 167 161 161 161 158 155 151 151 149 151 149 151
80 37 35 227 276 311 302 312 316 301 301 308 316 312 315 320 313 307 301 300 300 300 295 289 293 295 295 296 302 301 301 298 295 294 292 285 285 292 297 301 303 302 297 291 287 286 287 287 288 287 282 279 269 212 201 194 197 201 203 197 194 189 184 185 187 189 185 183 183 182 180 180 178 170 165 164 165 161 156 151 148 145 144 146 145 151 153
48 46 24 339 278 274 286 296 297 295 300 307 302 298 317 321 308 303 297 295 299 302 297 300 299 286 284 293 300 296 295 291 290 290 289 290 291 291 294 300 303 300 293 287 283 280 281 281 278 277 276 274 269 210 202 196 201 203 202 197 193 192 186 188 187 180 176 175 181 182 176 171 170 164 164 162 159 155 151 148 141 138 134 130 132 129 121
356 355 327 292 276 278 286 297 301 303 299 300 312 308 314 315 306 302 300 299 302 298 293 298 300 297 298 293 292 288 291 291 288 286 285 286 287 290 294 298 296 287 280 275 271 273 275 274 277 276 277 279 284 216 202 196 206 205 203 197 195 192 191 180 172 169 169 173 177 172 171 173 171 166 162 160 160 156 149 143 143 140 142 142 140 141 142
322 315 286 270 261 294 310 299 300 295 297 302 306 302 304 305 293 293 296 300 302 297 298 298 297 296 297 294 295 293 287 286 283 282 281 280 281 282 283 284 282 285 284 279 279 276 273 271 268 264 267 272 269 226 206 203 209 206 202 199 199 186 168 167 169 169 170 166 168 171 172 171 168 164 162 158 154 149 145 143 143 145 145 145 146 148 146
324 324 309 166 355 311 298 292 290 296 300 306 304 300 301 308 305 302 302 302 300 301 302 301 299 299 299 297 294 291 290 284 283 278 276 276 275 274 268 262 259 263 270 276 278 277 279 276 270 270 272 272 255 214 201 202 200 196 200 196 187 181 171 165 169 168 167 169 169 168 170 167 167 163 159 160 158 149 146 145 148 149 153 151 152 152 151
345 338 339 339 336 327 316 302 277 296 305 306 301 297 296 289 285 285 287 294 299 298 296 291 292 294 298 298 296 293 288 286 280 282 282 280 280 276 269 265 265 266 270 268 271 273 271 271 272 276 274 273 255 214 202 200 194 197 196 184 180 170 165 171 164 164 164 167 172 171 168 167 163 160 162 157 150 146 146 150 150 153 155 156 146 146 155
328 289 285 302 297 300 305 305 309 310 303 295 289 293 294 296 294 290 291 292 289 289 291 292 292 292 292 292 291 291 293 293 291 287 283 281 282 284 280 272 270 267 266 266 267 267 267 267 268 271 272 266 232 208 201 196 195 195 182 173 167 163 165 167 162 162 164 168 167 160 158 158 159 159 155 151 149 147 148 147 148 150 145 142 141 139 165
301 293 288 285 287 280 280 282 290 294 297 297 300 298 293 291 295 293 294 292 289 291 292 292 290 290 289 289 289 287 287 282 283 286 290 291 287 286 285 281 275 275 273 272 265 266 266 265 266 267 265 251 216 202 196 192 188 182 176 170 167 164 164 161 164 166 166 163 155 155 156 157 157 152 149 149 150 148 146 146 147 148 143 140 142 151 165
303 294 288 282 279 278 279 280 280 281 283 284 286 291 295 297 297 296 294 291 290 289 290 290 290 289 287 286 286 287 287 286 286 287 288 289 290 287 291 303 308 305 299 293 288 283 279 285 293 291 281 246 213 203 191 187 179 175 167 162 159 156 156 157 155 151 152 151 154 155 154 150 146 148 149 146 144 144 143 142 143 141 140 140 144 143 75
285 288 291 289 283 280 279 279 281 285 284 284 286 291 292 294 292 290 289 289 291 290 288 289 289 288 288 284 279 280 285 292 294 293 289 286 293 310 313 306 297 291 291 291 303 325 314 303 295 287 273 227 217 193 184 171 168 164 156 156 152 153 150 149 151 149 149 146 146 144 140 141 144 147 146 143 145 140 137 135 133 134 135 138 140 139 127
295 288 287 288 289 288 283 280 282 282 285 284 283 282 286 290 291 291 291 291 290 290 288 286 285 286 285 288 290 293 293 292 286 291 300 306 313 304 297 292 293 297 295 298 318 317 298 293 292 283 256 226 194 183 169 167 156 156 153 152 149 147 147 145 143 144 144 144 143 141 145 147 145 146 142 135 129 133 132 130 131 133 134 136 137 137 137
301 294 282 284 286 286 288 289 287 283 285 288 290 288 284 284 287 290 289 289 290 292 292 292 293 291 290 297 299 299 296 297 308 311 304 303 308 300 291 296 294 305 308 307 302 296 298 298 293 282 279 311 164 156 156 153 148 146 143 141 142 141 141 140 142 142 142 141 142 145 140 138 136 135 111 116 120 120 124 126 130 132 136 139 142 147 146
301 304 302 304 299 299 298 296 293 290 286 282 286 290 292 290 290 292 293 293 295 299 297 295 293 294 305 305 304 302 307 308 310 313 313 310 309 307 305 303 315 321 310 304 305 302 311 317 316 335 342 47 116 136 144 141 134 126 133 134 137 134 137 136 136 135 138 139 135 135 134 132 132 133 131 127 122 123 120 125 127 131 132 135 138 139 140
303 305 307 305 302 303 300 299 297 293 291 289 286 284 286 290 295 297 298 300 302 298 292 291 296 300 302 306 309 311 310 310 316 318 315 308 311 316 312 310 324 326 321 322 319 323 335 344 350 356 22 59 88 119 125 118 112 119 123 125 127 130 131 134 134 137 138 138 138 140 136 128 127 124 123 122 122 111 121 125 128 129 131 135 131 138 135
308 307 304 304 302 302 300 297 294 296 293 290 289 290 294 297 299 299 300 299 298 299 299 299 303 308 311 313 312 311 309 314 322 318 317 310 317 322 316 316 329 325 331 332 338 343 346 354 359 19 30 71 79 96 97 98 101 105 109 112 115 119 121 121 123 124 128 128 126 106 116 112 105 109 120 116 119 122 102 110 102 114 123 131 134 131 132
311 310 308 305 302 301 299 299 299 297 297 298 300 301 303 305 303 303 304 308 306 305 309 311 317 320 318 316 314 313 311 323 325 320 321 311 317 324 327 315 326 330 340 345 346 355 0 2 21 32 55 67 80 79 80 85 91 93 94 94 100 106 112 115 118 119 120 105 97 103 94 101 104 109 106 107 106 108 109 114 121 122 108 116 117 120 131
307 304 302 301 300 299 300 300 299 300 302 305 310 312 312 313 314 312 314 309 316 330 321 323 332 325 321 319 316 314 316 327 332 333 334 332 329 344 348 337 331 338 351 355 350 5 12 33 43 66 67 70 72 74 79 82 87 89 94 99 103 104 107 107 110 116 119 118 112 96 114 122 109 105 108 108 110 114 119 120 109 106 117 116 109 110 100
304 302 301 300 300 302 303 302 304 308 311 313 313 316 320 321 316 322 314 318 337 328 331 340 329 326 321 319 314 307 309 337 344 348 348 349 347 346 339 331 342 349 1 17 25 29 34 46 63 67 73 74 75 76 79 83 87 90 95 97 99 101 104 109 112 113 113 112 115 114 112 109 108 115 106 114 121 122 124 124 128 129 121 121 125 132 138
304 302 302 305 307 305 302 301 305 313 316 316 317 319 322 319 326 324 326 345 333 333 342 336 329 327 327 327 317 317 316 348 10 358 1 339 336 315 337 2 0 14 24 26 35 40 51 54 60 65 70 73 75 76 80 81 86 89 92 95 97 101 99 106 106 108 108 107 109 109 109 115 117 114 107 88 101 115 117 114 115 109 113 125 135 134 132
307 309 307 306 302 298 303 309 318 318 319 322 324 324 329 331 334 333 341 338 337 344 338 339 338 345 348 354 357 354 353 354 10 5 355 347 345 353 1 10 23 30 36 37 41 45 56 56 61 64 67 70 73 78 78 82 82 89 89 94 94 97 90 95 91 78 89 95 104 102 103 105 108 93 108 107 108 113 121 123 126 122 114 125 122 121 124
312 307 306 301 298 304 316 326 326 325 325 327 325 322 325 337 337 339 342 344 344 349 348 350 353 356 2 11 13 21 17 10 10 1 355 350 353 3 12 24 25 33 39 44 45 48 52 57 58 60 60 63 65 71 73 79 80 82 85 84 79 73 75 80 82 82 84 98 102 76 77 83 89 76 95 96 82 107 116 126 131 131 134 133 137 139 144
311 306 295 298 307 319 335 334 331 330 332 327 330 329 339 338 335 337 345 346 343 351 355 357 1 8 10 17 25 26 29 23 30 16 354 4 5 16 22 30 31 35 42 47 46 45 48 55 56 60 63 64 64 57 45 57 72 79 71 65 59 77 75 65 73 77 87 89 94 105 95 97 98 95 95 105 100 105 120 123 130 136 139 133 130 140 150
309 298 311 322 332 343 341 336 340 339 337 338 340 340 345 341 343 345 347 347 355 1 3 6 14 13 17 18 23 25 22 24 24 24 28 29 23 27 30 30 39 45 51 56 53 49 36 37 42 47 50 52 56 52 45 50 50 56 62 71 70 60 67 84 90 87 89 99 88 99 101 100 89 104 114 114 115 116 117 119 120 121 121 124 140 153 161
315 322 322 343 346 339 343 344 343 345 342 343 343 350 349 350 347 347 346 356 348 5 11 10 22 21 21 25 26 24 24 24 28 29 32 27 32 33 33 38 41 46 55 55 51 39 10 28 37 46 52 51 49 40 44 52 59 54 54 58 58 60 72 80 65 69 72 71 71 86 99 97 104 105 105 116 120 122 122 122 121 128 137 150 157 167 170
313 315 336 352 337 347 345 352 353 360 357 349 349 352 352 354 347 350 356 7 4 8 11 6 23 23 24 26 27 26 25 28 25 28 17 12 24 36 33 39 47 43 46 55 55 56 52 41 43 47 50 51 43 52 53 55 59 60 53 56 69 65 70 66 71 72 59 79 83 75 89 77 82 100 92 79 109 123 121 120 116 125 140 163 167 163 148